Total_Precipitation_Accumulation
0.03 0.03 0.03 0.06 0.57 0.31 0.04 0.00 0.00 0.00 0.03 0.00 0.00 0.00 0.02 0.07 0.17 0.20 0.04 0.00 0.00 0.00 0.00 0.07 0.10 0.09 0.07 0.11 0.07 0.03 0.01 0.00 0.00 0.00 0.04 0.02 0.01 0.01 0.01 0.03 0.02 0.11 0.24 0.26 0.18 0.09 0.08 0.08 0.10
0.07 0.19 0.15 0.20 0.80 0.06 0.00 0.00 0.00 0.00 0.00 0.00 0.00 0.00 0.13 0.16 0.01 0.00 0.01 0.01 0.00 0.00 0.00 0.03 0.12 0.08 0.11 0.06 0.01 0.01 0.00 0.00 0.00 0.00 0.03 0.02 0.02 0.01 0.00 0.02 0.04 0.11 0.17 0.19 0.11 0.04 0.04 0.06 0.08
0.16 0.07 0.15 0.32 0.15 0.02 0.00 0.00 0.00 0.00 0.00 0.00 0.00 0.00 0.05 0.02 0.02 0.02 0.02 0.01 0.00 0.00 0.00 0.00 0.04 0.05 0.07 0.03 0.02 0.02 0.01 0.00 0.01 0.01 0.01 0.02 0.01 0.01 0.01 0.04 0.04 0.10 0.11 0.11 0.07 0.02 0.04 0.06 0.06
0.06 0.07 0.19 0.23 0.06 0.01 0.00 0.00 0.00 0.00 0.00 0.00 0.00 0.01 0.00 0.01 0.01 0.03 0.02 0.01 0.00 0.00 0.00 0.01 0.01 0.01 0.02 0.01 0.02 0.01 0.00 0.02 0.04 0.07 0.04 0.02 0.02 0.00 0.02 0.04 0.01 0.03 0.02 0.01 0.00 0.00 0.01 0.00 0.01
0.04 0.25 0.18 0.46 0.11 0.01 0.00 0.00 0.00 0.00 0.00 0.00 0.00 0.02 0.01 0.00 0.00 0.00 0.00 0.01 0.00 0.00 0.00 0.00 0.03 0.03 0.03 0.01 0.01 0.02 0.02 0.00 0.01 0.02 0.02 0.01 0.03 0.00 0.01 0.02 0.02 0.02 0.00 0.00 0.00 0.00 0.00 0.01 0.06
0.06 0.19 0.23 0.57 0.24 0.01 0.00 0.00 0.00 0.00 0.00 0.00 0.00 0.01 0.05 0.02 0.00 0.00 0.00 0.01 0.01 0.05 0.00 0.00 0.00 0.02 0.08 0.07 0.05 0.02 0.01 0.00 0.01 0.04 0.01 0.02 0.01 0.00 0.00 0.02 0.00 0.00 0.00 0.00 0.00 0.00 0.00 0.03 0.07
0.08 0.19 0.46 0.17 0.55 0.04 0.00 0.00 0.01 0.00 0.00 0.00 0.00 0.02 0.07 0.04 0.00 0.00 0.01 0.00 0.07 0.09 0.08 0.06 0.04 0.01 0.04 0.07 0.01 0.00 0.00 0.01 0.06 0.02 0.07 0.03 0.00 0.00 0.00 0.00 0.00 0.00 0.00 0.00 0.00 0.00 0.00 0.02 0.04
0.01 0.28 0.29 0.09 0.08 0.06 0.01 0.00 0.00 0.00 0.00 0.00 0.00 0.01 0.02 0.00 0.00 0.00 0.01 0.07 0.20 0.25 0.61 0.03 0.05 0.04 0.00 0.00 0.00 0.00 0.00 0.01 0.02 0.05 0.09 0.03 0.00 0.00 0.00 0.00 0.00 0.00 0.00 0.00 0.00 0.00 0.01 0.04 0.06
0.00 0.01 0.02 0.05 0.06 0.10 0.01 0.02 0.01 0.00 0.01 0.00 0.00 0.00 0.00 0.00 0.00 0.01 0.06 0.12 0.33 0.25 1.07 0.31 0.04 0.21 0.24 0.00 0.00 0.00 0.00 0.00 0.00 0.04 0.05 0.07 0.01 0.00 0.00 0.00 0.00 0.00 0.00 0.00 0.00 0.00 0.03 0.09 0.05
0.00 0.00 0.04 0.04 0.13 0.13 0.05 0.03 0.03 0.01 0.03 0.03 0.01 0.00 0.00 0.00 0.00 0.04 0.11 0.18 0.39 0.29 1.17 0.89 0.22 0.21 0.27 0.01 0.01 0.04 0.01 0.00 0.00 0.04 0.07 0.24 0.14 0.00 0.00 0.00 0.00 0.00 0.00 0.00 0.00 0.00 0.08 0.07 0.75
0.00 0.00 0.00 0.02 0.03 0.04 0.05 0.03 0.02 0.04 0.09 0.10 0.02 0.00 0.00 0.00 0.00 0.07 0.11 0.07 0.09 0.10 0.20 0.31 1.07 0.13 0.07 0.01 0.01 0.04 0.00 0.00 0.02 0.09 0.14 0.58 0.35 0.00 0.00 0.00 0.00 0.00 0.00 0.00 0.00 0.05 0.22 0.29 0.74
0.00 0.00 0.00 0.00 0.01 0.03 0.03 0.03 0.03 0.04 0.03 0.01 0.02 0.00 0.00 0.00 0.00 0.00 0.01 0.03 0.08 0.03 0.15 0.08 0.15 0.08 0.14 0.01 0.05 0.03 0.00 0.00 0.04 0.10 0.07 0.14 0.04 0.00 0.00 0.00 0.00 0.00 0.00 0.01 0.09 0.43 0.19 0.10 0.16
0.00 0.00 0.01 0.00 0.02 0.01 0.00 0.00 0.03 0.01 0.01 0.00 0.01 0.00 0.00 0.00 0.00 0.00 0.00 0.02 0.05 0.01 0.03 0.05 0.03 0.14 0.14 0.09 0.04 0.01 0.00 0.00 0.08 0.09 0.02 0.04 0.01 0.00 0.00 0.00 0.00 0.02 0.02 0.09 0.12 0.21 0.25 0.25 0.52
0.00 0.00 0.00 0.00 0.01 0.01 0.02 0.03 0.01 0.04 0.02 0.00 0.00 0.00 0.00 0.00 0.00 0.00 0.00 0.00 0.00 0.01 0.00 0.00 0.00 0.02 0.07 0.09 0.00 0.02 0.01 0.00 0.04 0.08 0.06 0.05 0.01 0.00 0.00 0.00 0.00 0.00 0.03 0.06 0.03 0.07 0.22 0.37 0.26
0.00 0.00 0.00 0.08 0.01 0.01 0.02 0.25 0.03 0.03 0.01 0.00 0.00 0.00 0.00 0.00 0.00 0.00 0.00 0.00 0.00 0.00 0.00 0.00 0.00 0.03 0.08 0.02 0.00 0.04 0.01 0.00 0.03 0.04 0.09 0.04 0.00 0.00 0.00 0.00 0.00 0.01 0.04 0.02 0.01 0.03 0.06 0.06 0.16
0.00 0.00 0.01 0.07 0.00 0.02 0.04 0.24 0.02 0.00 0.00 0.00 0.00 0.00 0.00 0.00 0.00 0.00 0.00 0.00 0.00 0.00 0.00 0.01 0.02 0.01 0.04 0.00 0.00 0.01 0.00 0.00 0.03 0.05 0.05 0.04 0.01 0.01 0.00 0.00 0.00 0.03 0.02 0.03 0.03 0.01 0.05 0.03 0.02
0.00 0.00 0.01 0.01 0.00 0.00 0.00 0.00 0.00 0.00 0.00 0.00 0.00 0.00 0.00 0.00 0.00 0.00 0.00 0.00 0.00 0.00 0.00 0.00 0.00 0.00 0.01 0.00 0.00 0.02 0.04 0.01 0.02 0.01 0.03 0.03 0.05 0.00 0.00 0.00 0.03 0.04 0.01 0.02 0.02 0.05 0.04 0.04 0.02
0.00 0.00 0.00 0.00 0.00 0.00 0.00 0.00 0.00 0.00 0.00 0.00 0.01 0.00 0.00 0.00 0.00 0.00 0.00 0.00 0.00 0.00 0.00 0.00 0.00 0.01 0.02 0.02 0.00 0.01 0.01 0.01 0.04 0.00 0.00 0.00 0.03 0.00 0.00 0.03 0.04 0.01 0.00 0.02 0.03 0.03 0.00 0.00 0.01
0.00 0.00 0.00 0.00 0.00 0.00 0.00 0.00 0.00 0.00 0.00 0.00 0.01 0.01 0.00 0.00 0.00 0.00 0.00 0.00 0.00 0.00 0.00 0.00 0.00 0.00 0.01 0.03 0.01 0.00 0.01 0.00 0.01 0.00 0.00 0.00 0.00 0.00 0.00 0.01 0.01 0.00 0.02 0.30 0.03 0.00 0.01 0.03 0.03
0.00 0.00 0.00 0.00 0.00 0.00 0.00 0.00 0.00 0.00 0.00 0.00 0.00 0.00 0.00 0.00 0.00 0.00 0.00 0.00 0.00 0.00 0.00 0.00 0.00 0.00 0.00 0.01 0.01 0.01 0.00 0.00 0.00 0.00 0.02 0.03 0.00 0.00 0.00 0.00 0.01 0.01 0.02 0.05 0.02 0.02 0.03 0.31 0.00
0.00 0.00 0.00 0.00 0.00 0.00 0.00 0.00 0.00 0.00 0.00 0.00 0.00 0.00 0.00 0.00 0.00 0.00 0.00 0.00 0.00 0.00 0.00 0.00 0.00 0.00 0.01 0.04 0.04 0.04 0.05 0.02 0.00 0.00 0.01 0.00 0.00 0.00 0.00 0.00 0.03 0.09 0.02 0.11 0.15 0.04 0.05 0.04 0.02
0.00 0.00 0.00 0.00 0.00 0.00 0.00 0.00 0.00 0.00 0.00 0.00 0.00 0.00 0.00 0.00 0.00 0.00 0.00 0.00 0.00 0.00 0.00 0.00 0.00 0.00 0.01 0.05 0.03 0.06 0.05 0.01 0.00 0.01 0.01 0.00 0.00 0.01 0.00 0.00 0.02 0.11 0.06 0.06 0.16 0.04 0.06 0.04 0.01
0.00 0.00 0.00 0.00 0.00 0.00 0.00 0.00 0.00 0.00 0.00 0.00 0.00 0.00 0.00 0.00 0.00 0.00 0.00 0.00 0.00 0.00 0.00 0.00 0.00 0.00 0.00 0.01 0.03 0.04 0.05 0.04 0.00 0.00 0.01 0.00 0.02 0.03 0.01 0.00 0.00 0.02 0.02 0.04 0.03 0.02 0.05 0.02 0.00
0.00 0.00 0.00 0.00 0.00 0.00 0.00 0.00 0.00 0.00 0.00 0.00 0.00 0.00 0.00 0.00 0.00 0.00 0.00 0.00 0.00 0.00 0.00 0.00 0.00 0.00 0.00 0.01 0.01 0.01 0.02 0.02 0.00 0.00 0.00 0.00 0.00 0.01 0.00 0.00 0.00 0.01 0.01 0.01 0.01 0.01 0.01 0.00 0.00
0.00 0.00 0.00 0.00 0.00 0.00 0.00 0.00 0.00 0.00 0.00 0.00 0.00 0.00 0.00 0.00 0.00 0.00 0.00 0.00 0.00 0.00 0.00 0.00 0.00 0.00 0.00 0.00 0.00 0.00 0.01 0.02 0.01 0.00 0.00 0.00 0.00 0.00 0.00 0.00 0.00 0.00 0.00 0.01 0.01 0.01 0.01 0.01 0.00
0.00 0.00 0.00 0.00 0.00 0.00 0.00 0.00 0.00 0.00 0.00 0.00 0.00 0.00 0.00 0.00 0.00 0.00 0.00 0.00 0.00 0.00 0.00 0.00 0.00 0.00 0.00 0.00 0.00 0.00 0.00 0.00 0.00 0.00 0.00 0.00 0.00 0.00 0.01 0.00 0.00 0.00 0.02 0.02 0.02 0.01 0.00 0.01 0.05
0.00 0.00 0.00 0.00 0.00 0.00 0.00 0.00 0.00 0.00 0.00 0.00 0.00 0.00 0.00 0.00 0.00 0.00 0.00 0.00 0.00 0.00 0.00 0.00 0.00 0.00 0.00 0.00 0.00 0.00 0.00 0.00 0.00 0.00 0.00 0.00 0.01 0.02 0.02 0.00 0.02 0.03 0.02 0.03 0.04 0.01 0.01 0.02 0.06
0.00 0.00 0.00 0.00 0.00 0.00 0.00 0.00 0.00 0.00 0.00 0.00 0.00 0.00 0.00 0.00 0.00 0.00 0.00 0.00 0.00 0.00 0.00 0.00 0.00 0.00 0.00 0.00 0.00 0.00 0.00 0.00 0.00 0.00 0.00 0.00 0.00 0.00 0.01 0.04 0.07 0.04 0.02 0.03 0.09 0.03 0.01 0.05 0.05
0.00 0.00 0.00 0.00 0.00 0.00 0.00 0.00 0.00 0.00 0.00 0.00 0.00 0.00 0.00 0.00 0.00 0.00 0.00 0.00 0.00 0.00 0.00 0.00 0.00 0.00 0.00 0.00 0.00 0.00 0.00 0.00 0.00 0.00 0.00 0.00 0.00 0.00 0.00 0.01 0.06 0.09 0.04 0.08 0.09 0.10 0.04 0.13 0.03
0.00 0.00 0.00 0.00 0.00 0.00 0.00 0.00 0.00 0.00 0.00 0.00 0.00 0.00 0.00 0.00 0.00 0.00 0.00 0.00 0.00 0.00 0.00 0.00 0.00 0.00 0.00 0.00 0.00 0.00 0.00 0.00 0.00 0.00 0.00 0.00 0.00 0.00 0.00 0.00 0.02 0.04 0.03 0.11 0.13 0.08 0.06 0.09 0.09